{"data":{"norad_id":43480,"epoch":"2026-05-25T03:42:14.231232Z","epoch_age_seconds":61985,"freshness":"FRESH","line1":"1 43480U 18047E   26145.15433138  .00000052  00000+0  11560-4 0  9998","line2":"2 43480  86.3946  97.9668 0002190  84.2025 275.9420 14.34217851419183","mean_motion":14.34217851,"eccentricity":0.000219,"inclination_deg":86.3946,"raan_deg":97.9668,"arg_perigee_deg":84.2025,"mean_anomaly_deg":275.942,"bstar":1.156e-5,"rev_number":41918,"period_min":100.40315695387,"perigee_km":776.09969736818,"apogee_km":779.23393944065,"semimajor_km":7155.8038184044,"source":"CELESTRAK","updated_at":"2026-05-25T13:38:14.810245Z"}}